This is the latest recevied weather packets stored in our database for station/object KC3ROS. If no packets are shown the sender has not sent any weather packets the latest 10 day(s).
| Time | Temp. | Humidity | Pressure | Rain* | Wind** | Luminosity | Snow |
|---|---|---|---|---|---|---|---|
| 1777984341 | 18.33° C | 66% | 1007.2 hPa | 0 mm | - | 263 W/m² | - |
| 1777984037 | 17.78° C | 67% | 1007.4 hPa | 0 mm | - | 263 W/m² | - |
| 1777983734 | 17.78° C | 69% | 1007.4 hPa | 0 mm | - | 258 W/m² | - |
| 1777983431 | 17.78° C | 69% | 1007.4 hPa | 0 mm | - | 220 W/m² | - |
| 1777983127 | 17.22° C | 69% | 1007.4 hPa | 0 mm | - | 190 W/m² | - |
| 1777982824 | 16.67° C | 72% | 1007.4 hPa | 0 mm | - | 193 W/m² | - |
| 1777982519 | 17.22° C | 71% | 1007.3 hPa | 0 mm | - | 48 W/m² | - |
| 1777982213 | 17.22° C | 70% | 1007.1 hPa | 0 mm | - | 31 W/m² | - |
| 1777981911 | 17.22° C | 70% | 1007 hPa | 0 mm | - | 47 W/m² | - |
| 1777981608 | 17.22° C | 71% | 1007.1 hPa | 0 mm | - | 90 W/m² | - |
| 1777981304 | 17.22° C | 70% | 1007.4 hPa | 0 mm | - | 99 W/m² | - |
| 1777981001 | 17.22° C | 70% | 1007.1 hPa | 0 mm | - | 96 W/m² | - |
| 1777980698 | 17.22° C | 70% | 1007.2 hPa | 0 mm | - | 85 W/m² | - |
| 1777980393 | 17.22° C | 71% | 1007.1 hPa | 0 mm | - | 78 W/m² | - |
| 1777980092 | 16.67° C | 71% | 1007.3 hPa | 0 mm | - | 64 W/m² | - |
| 1777979786 | 16.67° C | 72% | 1007.2 hPa | 0 mm | - | 54 W/m² | - |
| 1777979482 | 16.67° C | 73% | 1007.2 hPa | 0 mm | - | 46 W/m² | - |
| 1777979178 | 16.67° C | 72% | 1007 hPa | 0 mm | - | 39 W/m² | - |
| 1777978876 | 16.67° C | 72% | 1006.9 hPa | 0 mm | - | 31 W/m² | - |
| 1777978572 | 16.67° C | 73% | 1006.9 hPa | 0 mm | - | 22 W/m² | - |
| 1777978268 | 16.67° C | 73% | 1006.7 hPa | 0 mm | - | 17 W/m² | - |
| 1777977965 | 16.67° C | 73% | 1006.8 hPa | 0 mm | - | 13 W/m² | - |
| 1777977663 | 16.11° C | 74% | 1006.8 hPa | 0 mm | - | 10 W/m² | - |
| 1777977359 | 16.67° C | 73% | 1006.6 hPa | 0 mm | - | 7 W/m² | - |
| 1777977056 | 16.67° C | 73% | 1006.5 hPa | 0 mm | - | 5 W/m² | - |
* Rain latest hour (hover to see other rain measurements)
** Current wind speed in m/s (hover to see current wind gust speed)